This demonstration page uses our WeatherBlox Daily Observations layout. Learn more.

39.01783, -85.05884

Hourly Observations for October 18, 2020

Temp ( °F °C ) Dew Point ( °F °C ) Humidity (%) Winds ( mph kmh ) Pressure ( in mb ) Visibility ( mi km ) Precip ( " mm )
12:52 am 00:52 Mostly Clear 49 9.4 29 -1.7 46 46 SSE 12 19 30.17 1022 10 16.0934 0 0
1:52 am 01:52 Mostly Clear 47 8.3 29 -1.7 50 50 S 5 7 30.19 1023 10 16.0934 0 0
2:52 am 02:52 Partly Cloudy 45 7.2 30 -1.1 56 56 S 7 11 30.17 1022 10 16.0934 0 0
3:52 am 03:52 Cloudy 50 10 31 -0.6 48 48 S 9 15 30.15 1021 10 16.0934 0 0
4:52 am 04:52 Cloudy 51 10.6 32 0 48 48 S 13 20 30.13 1020 10 16.0934 0 0
5:52 am 05:52 Cloudy 52 11.1 33 0.6 49 49 S 10 17 30.14 1021 10 16.0934 0 0
6:52 am 06:52 Cloudy 51 10.6 34 1.1 52 52 S 9 15 30.17 1022 10 16.0934 0 0
7:52 am 07:52 Cloudy 49 9.4 35 1.7 59 59 SSE 7 11 30.18 1022 10 16.0934 0 0
8:52 am 08:52 Cloudy 50 10 36 2.2 59 59 S 10 17 30.18 1022 10 16.0934 0 0
9:52 am 09:52 Cloudy with Light Rain 50 10 38 3.3 63 63 S 12 19 30.19 1022 10 16.0934 0.001 0.001
10:52 am 10:52 Cloudy with Light Rain 49 9.4 43 6.1 80 80 S 9 15 30.21 1023 7 11.26538 0.04 1.016
11:12 am 11:12 Cloudy 50 10 43 6.1 77 77 S 9 15 30.22 1023 10 16.0934 0.001 0.001
11:52 am 11:52 Cloudy 50 10 44 6.7 80 80 S 10 17 30.2 1023 10 16.0934 0.001 0.001
12:52 pm 12:52 Cloudy 51 10.6 45 7.2 80 80 S 12 19 30.19 1023 10 16.0934 0 0
1:52 pm 13:52 Cloudy 54 12.2 47 8.3 77 77 S 14 22 30.16 1021 10 16.0934 0 0
2:52 pm 14:52 Cloudy 58 14.4 48 8.9 70 70 SSW 15 24 30.14 1021 10 16.0934 0 0
3:52 pm 15:52 Cloudy 59 15 48 8.9 67 67 SSW 10 17 30.13 1020 10 16.0934 0 0
4:11 pm 16:11 Cloudy 59 15 48 8.9 67 67 SSW 12 19 30.13 1020 10 16.0934 0 0
4:52 pm 16:52 Cloudy 59 15 48 8.9 67 67 SSW 13 20 30.14 1021 10 16.0934 0 0
5:52 pm 17:52 Cloudy 58 14.4 48 8.9 70 70 SSW 9 15 30.17 1022 10 16.0934 0 0
6:52 pm 18:52 Cloudy 57 13.9 48 8.9 72 72 S 9 15 30.15 1021 10 16.0934 0 0
7:52 pm 19:52 Cloudy 57 13.9 49 9.4 74 74 S 6 9 30.16 1022 10 16.0934 0 0
8:52 pm 20:52 Cloudy 57 13.9 49 9.4 74 74 S 7 11 30.17 1022 10 16.0934 0 0
9:52 pm 21:52 Cloudy 57 13.9 50 10 78 78 S 8 13 30.17 1022 10 16.0934 0 0
10:52 pm 22:52 Cloudy 56 13.3 50 10 81 81 SSW 3 6 30.19 1022 10 16.0934 0 0
11:52 pm 23:52 Cloudy with Rain 55 12.8 51 10.6 87 87 S 6 9 30.19 1023 5 8.0467 0.01 0.254

Powered by AerisWeather